Printer-friendly version

IAU Minor Planet Center

Minor Planet Center

(44) Nysa

Orbital Elements

The following orbital elements are taken from MPO 3854
   (44) Nysa
Epoch 2003 Dec. 27.0 TT = JDT 2453000.5                 Goffin
M  60.60439              (2000.0)            P               Q
n   0.26123116     Peri.  342.60860     -0.41071427     -0.91048451
a   2.4235542      Node   131.61179     +0.84401856     -0.39969718
e   0.1489635      Incl.    3.70305     +0.34488615     -0.10611371
P   3.77           H    7.03          G   0.46           U   0
From 1410 observations at 81 oppositions, 1857-2000, mean residual 0".52.
An explanation of the orbital elements is available.

These orbital elements are also available in forms suitable for loading into a number of popular planetarium-type software programs.


Ephemeris

The following ephemeris is at intervals of five days. A daily ephemeris covering the same time interval is also available.

Date    TT    R. A. (2000) Decl.     Delta      r     Elong.  Phase     V
 
2004 02 15    15 12.20   -13 37.2    2.055    2.374    96.2    24.4    11.2
2004 02 20    15 16.40   -13 44.1    1.999    2.382   100.2    24.1    11.2
2004 02 25    15 20.02   -13 48.1    1.944    2.391   104.4    23.6    11.1
2004 03 01    15 23.03   -13 49.3    1.890    2.399   108.7    23.0    11.0
2004 03 06    15 25.38   -13 47.6    1.838    2.407   113.1    22.3    11.0
2004 03 11    15 27.05   -13 43.2    1.788    2.416   117.7    21.4    10.9
2004 03 16    15 27.99   -13 36.0    1.740    2.424   122.5    20.3    10.8
2004 03 21    15 28.17   -13 26.1    1.695    2.432   127.4    19.0    10.7
2004 03 26    15 27.59   -13 13.6    1.653    2.440   132.5    17.5    10.7
2004 03 31    15 26.25   -12 58.7    1.615    2.448   137.8    15.9    10.6
2004 04 05    15 24.17   -12 41.8    1.581    2.456   143.2    14.1    10.5
2004 04 10    15 21.40   -12 23.0    1.553    2.464   148.7    12.2    10.4
2004 04 15    15 18.00   -12 02.6    1.530    2.473   154.3    10.1    10.3
2004 04 20    15 14.05   -11 41.3    1.512    2.480   160.0     8.0    10.3
2004 04 25    15 09.66   -11 19.5    1.501    2.488   165.6     5.8    10.2
2004 04 30    15 04.99   -10 57.8    1.497    2.496   170.7     3.7    10.1
2004 05 05    15 00.17   -10 36.9    1.499    2.504   173.8     2.5    10.1
2004 05 10    14 55.35   -10 17.4    1.508    2.512   172.0     3.2    10.1
2004 05 15    14 50.67   -09 59.9    1.523    2.519   167.3     5.1    10.2
2004 05 20    14 46.26   -09 44.9    1.546    2.527   161.9     7.2    10.3
2004 05 25    14 42.25   -09 33.0    1.574    2.535   156.4     9.2    10.4
2004 05 30    14 38.74   -09 24.4    1.608    2.542   150.9    11.2    10.5
2004 06 04    14 35.80   -09 19.4    1.648    2.549   145.5    13.0    10.6
2004 06 09    14 33.47   -09 17.9    1.693    2.557   140.2    14.7    10.7
2004 06 14    14 31.78   -09 20.0    1.742    2.564   135.1    16.2    10.9
2004 06 19    14 30.76   -09 25.7    1.795    2.571   130.2    17.6    11.0
2004 06 24    14 30.39   -09 34.7    1.852    2.578   125.4    18.7    11.1
2004 06 29    14 30.66   -09 46.8    1.912    2.585   120.8    19.7    11.2
2004 07 04    14 31.55   -10 01.9    1.975    2.592   116.4    20.6    11.2
2004 07 09    14 33.02   -10 19.5    2.040    2.599   112.1    21.3    11.3
2004 07 14    14 35.05   -10 39.5    2.107    2.605   107.9    21.8    11.4
2004 07 19    14 37.61   -11 01.5    2.175    2.612   103.9    22.2    11.5
2004 07 24    14 40.66   -11 25.4    2.244    2.618    99.9    22.5    11.6
2004 07 29    14 44.18   -11 50.9    2.315    2.625    96.1    22.6    11.7
2004 08 03    14 48.13   -12 17.6    2.385    2.631    92.4    22.7    11.7

Back to Bright Minor Planets

Astronomical Headlines Index


Valid HTML 4.01!